カタリナ彗星

C/2018 M1 ( Catalina )

English version
Home page
Updated on February 9, 2019

---------------------------------------------------------------------

・ プロフィール

発見日 2018年6月25日
発見光度 17.6等
発見者 H. Groeller and R. A. Kowalski (Catalina Sky Survey)

・ 写真集

・ 軌道要素

Epoch 2018 July 21.0 TT = JDT 2458320.5
T 2018 July 10.02572 TT                                 MPCW
q   1.3035065            (2000.0)            P               Q
n   0.01002992     Peri.   14.13377     +0.97628484     +0.04207052
a  21.2946764      Node   339.46498     -0.20391077     +0.50820235
e   0.9387872      Incl.   37.25778     +0.07272079     +0.86020953
P  98.27
From 146 observations 2018 June 25-Oct. 3, mean residual 0".5.

・ 光度変化

        m1 = 15.5 + 5 logΔ + 10.0 log r

---------------------------------------------------------------------

軌道要素はM.P.E.C. 2018-U70に掲載されたものです。
光度グラフはComet for Windowsで作成したものです。

---------------------------------------------------------------------

Copyright(C) Seiichi Yoshida (comet@aerith.net). All rights reserved.